Regional Weather Roundup
Issued by NWS Portland, ME

Home | Current Version | Previous Version | Text Only | Print | Product List | Glossary On
Versions: 1 2 3 4 5 6 7 8 9 10 11 12 13 14 15 16 17 18 19 20 21 22 23 24 25 26 27 28 29 30 31 32 33 34 35 36 37 38 39 40 41 42 43 44 45 46 47 48 49 50
000
ASUS41 KGYX 252310
RWRGYX
WEATHER ROUNDUP FOR MAINE AND NEW HAMPSHIRE
NATIONAL WEATHER SERVICE GRAY ME
600 PM EST THU DEC 25 2014

MEZ002-005-006-010-012-015-018-020-021-024-026-027-029-260000-
MAINE

CITY           SKY/WX    TMP DP  RH WIND       PRES   REMARKS
PORTLAND       PTCLDY    47  30  51 W17       29.67R
SANFORD        CLEAR     45  27  49 W18       29.69R
BAR HARBOR     PTCLDY    45  37  76 SW7       29.56S
WISCASSET      PTCLDY    45  32  60 VRB6      29.64R
ROCKLAND       MOCLDY    45  36  70 SW9       29.60R
FRYEBURG       PTCLDY    45  27  49 W9G20     29.65R
LEWISTONAUBURN CLEAR     46  28  49 W14G20    29.63R
AUGUSTA        CLOUDY    46  27  47 W18G28    29.62R
WATERVILLE     CLOUDY    45  28  53 W21G29    29.57R
BANGOR         MOCLDY    46  30  53 SW13      29.55R
GREENVILLE       N/A     39  26  59 W13G24    29.44R
MILLINOCKET    NOT AVBL
HOULTON        CLOUDY    42  30  62 SW10G20   29.41R
PRESQUE ISLE   CLOUDY    43  27  52 SW10G23   29.36R
FRENCHVILLE    CLOUDY    38  28  67 SW20G36   29.27R
CARIBOU        CLOUDY    40  29  64 SW15G25   29.32R
$$

NHZ002-005-008-009-011-012-014-260000-
NEW HAMPSHIRE

CITY           SKY/WX    TMP DP  RH WIND       PRES   REMARKS
PORTSMOUTH     CLEAR     46  29  51 W15       29.71R
ROCHESTER      CLEAR     45  28  51 VRB6G16   29.71R
NASHUA         PTCLDY    47  29  50 W8G20     29.79R
MANCHESTER     PTCLDY    46  28  49 W9G22     29.76R
CONCORD        MOCLDY    44  28  53 W13G22    29.75R
PLYMOUTH       FAIR      44  32  64 W16G24    29.71R
BERLIN         CLOUDY    42  26  53 W13G24    29.64R
WHITEFIELD     CLOUDY    42  27  55 W13G26    29.69R
JAFFREY        MOCLDY    42  29  59 W14G22    29.78R
KEENE          PTCLDY    45  28  53 W12G21    29.81R
LEBANON        PTCLDY    43  29  57 W17G31    29.76R
MT WASHINGTON  FOG       18  18 100 W89G99      N/A  VSB 1/16WCI -10
$$

VTZ005-007-008-260000-
VERMONT

CITY           SKY/WX    TMP DP  RH WIND       PRES   REMARKS
ST JOHNSBURY     N/A     43  28  55 MISG      29.70R
MONTPELIER     CLOUDY    40  28  62 W13G18    29.76R
BURLINGTON     CLOUDY    44  28  53 W22G32    29.78R
$$

MAZ007-012-024-CTZ003-RIZ002-NYZ038-NYZ072-260000-
SOUTHERN NEW ENGLAND AND NY

CITY           SKY/WX    TMP DP  RH WIND       PRES   REMARKS
BOSTON         PTCLDY    47  29  49 W16G26    29.79R
WORCESTER      CLEAR     43  27  53 W22G35    29.78R
NANTUCKET      CLEAR     48  33  56 W17G26    29.83R
PROVIDENCE     CLEAR     47  28  47 W7        29.84R
HARTFORD       PTCLDY    46  27  47 W6        29.87R
ALBANY         MOCLDY    45  30  55 W9G21     29.91R
NEW YORK CITY  MOCLDY    49  29  46 W13G21    29.96R
$$

ANZ081-ANZ082-ANZ150-NHZ014-MEZ023>029-260000-
COASTAL MARINE OBSERVATIONS

STATION/POSITION TIME  TEMP    WIND        PRES    WAVE
                       AIR SEA DIR/SP/G            HT/PER
                 (UTC) (F)     (DEG/KT/KT) (MB)    (FT/S)
MOUNT DESERT ROC 2300   49                 1001.5R
MATINICUS ROCK   2300          260/ 29/ 32 1002.5R
PORTLAND WX BUOY 2250   46 43  250/ 14/ 16 1004.7R   4/ 7
WELLS            2200   48 40  270/ 13/ 19 1004.0R
ISLE OF SHOALS   2300   47     260/ 18/ 21 1006.1R
JEFFREYS LEDGE   2221      49                N/A     6/ 5
CASHES LEDGE BUO 2250   50 49  260/ 25/ 31 1004.1R   8/ 7
$$

.............KEY..............
   WCI - WIND CHILL
   TC  - TEMPERATURE IN CELSIUS
   VSB - VISIBILITY IN MILES
   HX  - HEAT INDEX
   FAIR- INDICATES FEW OR NO CLOUDS BELOW 12,000 FT, WITH NO
         SIGNIFICANT WEATHER AND/OR OBSTRUCTIONS TO VISIBILITY.




USA.gov is the U.S. government's official web portal to all federal, state and local government web resources and services.